TimeCST,TemperatureF,Dew PointF,Humidity,Sea Level PressureIn,VisibilityMPH,Wind Direction,Wind SpeedMPH,Gust SpeedMPH,PrecipitationIn,Events,Conditions,WindDirDegrees,DateUTC
12:00 AM,-30,-37,50,29.52,15,SE,10.4,,,Snow,Snow,140,2013-01-06 06:00:00
12:00 AM,-31.0,-38.2,68,29.52,15.0,SE,9.2,-,N/A,Snow,Low Drifting Snow,140,2013-01-06 06:00:00
1:00 AM,-29.2,-38.2,62,29.54,15.0,SE,10.4,-,N/A,Snow,Low Drifting Snow,130,2013-01-06 07:00:00
2:00 AM,-29.2,-36.4,68,29.56,15.0,SE,10.4,-,N/A,Snow,Low Drifting Snow,130,2013-01-06 08:00:00
3:00 AM,-29.2,-38.2,62,29.58,15.0,SE,8.1,-,N/A,,Clear,140,2013-01-06 09:00:00
4:00 AM,-29.2,-38.2,62,29.60,15.0,ENE,2.3,-,N/A,,Clear,70,2013-01-06 10:00:00
5:00 AM,-27.4,-34.6,69,29.62,15.0,ESE,3.5,-,N/A,,Clear,120,2013-01-06 11:00:00
6:00 AM,-33,-41,47,29.63,15,SE,3.5,,,Snow,Snow,130,2013-01-06 12:00:00
6:00 AM,-32.8,-40.0,68,29.63,15.0,SE,4.6,-,N/A,,Clear,130,2013-01-06 12:00:00
7:00 AM,-32.8,-41.8,62,29.64,15.0,Calm,Calm,-,N/A,,Clear,0,2013-01-06 13:00:00
8:00 AM,-32.8,-40.0,68,29.65,15.0,Calm,Calm,-,N/A,,Clear,0,2013-01-06 14:00:00
10:00 AM,-31.0,-40.0,62,29.66,15.0,Calm,Calm,-,N/A,,Partly Cloudy,0,2013-01-06 16:00:00
11:00 AM,-32.8,-40.0,68,29.66,15.0,Calm,Calm,-,N/A,,Partly Cloudy,0,2013-01-06 17:00:00
12:00 PM,-32,-39,50,29.63,15,East,3.5,,,Snow,Snow,90,2013-01-06 18:00:00
12:00 PM,-32.8,-40.0,68,29.68,15.0,East,2.3,-,N/A,,Partly Cloudy,80,2013-01-06 18:00:00
1:00 PM,-34.6,-41.8,68,29.69,15.0,Calm,Calm,-,N/A,,Partly Cloudy,0,2013-01-06 19:00:00
2:00 PM,-34.6,-41.8,68,29.70,15.0,Calm,Calm,-,N/A,,Clear,0,2013-01-06 20:00:00
3:00 PM,-34.6,-41.8,68,29.71,15.0,Calm,Calm,-,N/A,,Clear,0,2013-01-06 21:00:00
4:00 PM,-34.6,-43.6,61,29.71,15.0,Calm,Calm,-,N/A,,Clear,0,2013-01-06 22:00:00
5:00 PM,-34.6,-43.6,61,29.72,15.0,Calm,Calm,-,N/A,,Clear,0,2013-01-06 23:00:00
6:00 PM,-34,-41,49,29.73,15,ESE,2.3,,,Snow,Snow,120,2013-01-07 00:00:00
6:00 PM,-34.6,-41.8,68,29.73,15.0,SE,2.3,-,N/A,,Clear,130,2013-01-07 00:00:00
7:00 PM,-38.2,-45.4,67,29.73,15.0,ESE,2.3,-,N/A,,Clear,120,2013-01-07 01:00:00
8:00 PM,-36.4,-43.6,67,29.72,15.0,East,2.3,-,N/A,,Clear,90,2013-01-07 02:00:00
9:00 PM,-38.2,-45.4,67,29.72,15.0,ESE,2.3,-,N/A,,Clear,110,2013-01-07 03:00:00